Regional Weather Roundup
Issued by NWS

Home | Current Version | Previous Version | Text Only | Print | Product List | Glossary Off
Versions: 1 2 3 4 5 6 7 8 9 10 11 12 13 14 15 16 17 18 19 20 21 22 23 24 25 26 27 28 29 30 31 32 33 34 35 36 37 38 39 40 41 42 43 44 45 46 47 48 49 50

000
ASUS43 KLOT 281406
RWRIL

ILLINOIS REGIONAL WEATHER ROUNDUP
NATIONAL WEATHER SERVICE CHICAGO/ROMEOVILLE IL
800 AM CST SUN DEC 28 2014

NOTE: "FAIR" INDICATES FEW OR NO CLOUDS BELOW 12,000 FEET WITH NO
SIGNIFICANT WEATHER AND/OR OBSTRUCTIONS TO VISIBILITY.

* THESE STATIONS ARE NOT UNDER NWS QUALITY CONTROL. THEY ALSO MAY NOT
  REPORT WEATHER SUCH AS PRECIPITATION OR FOG.

ILZ001-002-007-009-015-016-024-281500-
NORTHWEST ILLINOIS

CITY           SKY/WX    TMP DP  RH WIND       PRES   REMARKS
MOLINE         PTCLDY    18  14  84 SW5       30.21R WCI  11
STERLING*      PTCLDY    19  14  79 W5        30.20R WCI  13
SAVANNA*       CLEAR     19  16  85 CALM      30.20R
$$

ILZ003-004-008-010-011-017-018-281500-
NORTH CENTRAL ILLINOIS

CITY           SKY/WX    TMP DP  RH WIND       PRES   REMARKS
ROCKFORD       PTCLDY    19  14  81 W5        30.19R WCI  12
FREEPORT*      PTCLDY    17  14  89 W5        30.19R WCI  10
ROCHELLE*      MOCLDY    19  16  90 W6        30.19R WCI  11
DE KALB*       MOCLDY    19  16  87 W6        30.17R WCI  11
PERU*          MOCLDY    21  18  87 W7        30.21R WCI  12
$$

ILZ005-006-012>014-019>023-281500-
NORTHEAST ILLINOIS

CITY           SKY/WX    TMP DP  RH WIND       PRES   REMARKS
CHICAGO-OHARE  MOCLDY    22  18  85 W7        30.16R WCI  13
CHICAGO-MIDWAY MOCLDY    26  19  74 W8        30.17R WCI  18
AURORA         MOCLDY    22  17  81 W7        30.18R WCI  13
LANSING*       CLOUDY    26  20  80 W6        30.18R WCI  19
JOLIET*        MOCLDY    23  19  86 W6        30.19S WCI  15
WAUKEGAN       PTCLDY    21  17  84 VRB3      30.14R
DUPAGE AIRPORT MOCLDY    22  18  85 W5        30.16R WCI  16
KANKAKEE*      CLOUDY    26  22  85 W7        30.19R WCI  18
WHEELING       MOCLDY    23  17  78 W5        30.18R WCI  17
MORRIS*        MOCLDY    22  21  93 W6        30.18S WCI  15
ROMEOVILLE*    FAIR      23  20  89 W6        30.18S WCI  16
NORTHERLY ISL    N/A     25  19  78 SW9         N/A  WCI  16
$$

LMZ740>746-281500-
SOUTHERN LAKE MICHIGAN

STATION/POSITION SKY/WX   TEMP    WIND        PRES    VSBY  WAVE
                          AIR SEA DIR/SP/G                  HT/PER
                          (F)     (DEG/KT/KT) (MB)    (MI)  (FT/S)
WAUKEGAN HARBOR            24     260/  6/ 11   N/A
HARRISON CRIB              25     270/  9/ 11   N/A
BURNHAM HARBOR             26     250/  8/ 11   N/A
CALUMET HARBOR             26     240/  3/  7 1020.1F
MICHIGAN CITY              30     260/ 11/ 14   N/A
$$

ILZ025>027-034>036-040-047-049-050-058-095>099-281500-
WEST-CENTRAL ILLINOIS

CITY           SKY/WX    TMP DP  RH WIND       PRES   REMARKS
QUINCY         MOCLDY    25  20  81 SW3       30.22R
GALESBURG*     MOCLDY    20  19  93 CALM      30.21R
MACOMB*        MOCLDY    23  21  92 CALM      30.23S
JACKSONVILLE*  CLOUDY    30  23  75 NW3       30.24R
PITTSFIELD*    CLOUDY    29  23  78 W3        30.24R
$$

ILZ028>032-037-038-041>044-048-051>054-059>061-281500-
CENTRAL ILLINOIS

CITY           SKY/WX    TMP DP  RH WIND       PRES   REMARKS
PONTIAC        CLOUDY    23  18  81 NW9       30.21R WCI  13
BLOOMINGTON    CLOUDY    24  20  85 NW12      30.21R WCI  13
DECATUR        CLOUDY    27  22  81 NW10      30.22R WCI  17
PEORIA         FAIR      24  18  77 W3        30.23R
LACON*         MOCLDY    21  17  83 CALM      30.21R
LINCOLN*       CLOUDY    28  22  81 NW3       30.24R
SPRINGFIELD    CLOUDY    29  23  78 NW3       30.24R
TAYLORVILLE    CLOUDY    28  23  80 NW6       30.24R WCI  22
$$

ILZ033-039-045-046-055>057-062-063-281500-
EAST-CENTRAL ILLINOIS

CITY           SKY/WX    TMP DP  RH WIND       PRES   REMARKS
CHAMPAIGN      CLOUDY    26  21  81 NW6       30.21R WCI  19
DANVILLE*      CLOUDY    27  23  86 W6        30.18R WCI  20
RANTOUL*       CLOUDY    27  21  79 NW12      30.20R WCI  16
MATTOON        MOCLDY    28  24  85 NW8       30.20R WCI  20
PARIS*         MOCLDY    29  26  90 NW6       30.21R WCI  23
$$

ILZ079-100>102-281500-
SOUTHWEST ILLINOIS

CITY           SKY/WX    TMP DP  RH WIND       PRES   REMARKS
ALTON          CLOUDY    30  25  80 NW7       30.25R WCI  23
BELLEVILLE     CLOUDY    32  27  84 NW6       30.24R WCI  26
CAHOKIA*       CLOUDY    32  26  78 NW7       30.25R WCI  26
SPARTA*        CLOUDY    32  26  81 NW7       30.25R WCI  25
$$

ILZ064>066-069>071-074>076-080>082-084>086-088>090-092>094-281500-
SOUTH-CENTRAL ILLINOIS

CITY           SKY/WX    TMP DP  RH WIND       PRES   REMARKS
CARBONDALE     CLOUDY    33  26  75 N9        30.24R WCI  25
CAIRO*         CLOUDY    37  31  81 N7        30.24R WCI  31
EFFINGHAM*     CLOUDY    31  24  74 NW9       30.23S WCI  23
MARION         CLOUDY    34  28  80 NW7       30.24R WCI  28
MT. VERNON     CLOUDY    30  23  74 NW5       30.24R WCI  25
CENTRALIA*     CLOUDY    32  26  81 N9        30.24R WCI  24
SALEM*         CLOUDY    32  28  83 NW8       30.24R WCI  25
METROPOLIS*    CLOUDY    34  33  95 NW7       30.22R WCI  28
$$

ILZ067-068-072-073-078-083-087-091-281500-
SOUTHEAST ILLINOIS

CITY           SKY/WX    TMP DP  RH WIND       PRES   REMARKS
LAWRENCEVILLE  CLOUDY    33  28  81 N9        30.21R WCI  25
FLORA*         CLOUDY    32  28  84 NW8       30.23R WCI  25
FAIRFIELD*     CLOUDY    32  28  86 CALM      30.22R
HARRISBURG*    CLOUDY    33  29  87 NW8       30.25R WCI  25
ROBINSON*      CLOUDY    32  28  86 NW10      30.22R WCI  23
CARMI*         CLOUDY    34  32  91 NW9       30.23R WCI  27
$$

ABBREVIATIONS USED IN REMARKS
   TC - TEMPERATURE IN CELSIUS
  WCI - WIND CHILL INDEX
   HX - HEAT INDEX
  VSB - VISIBILITY
$$




USA.gov is the U.S. government's official web portal to all federal, state and local government web resources and services.